{"data":{"norad_id":45432,"intl_designator":"2020-020J","name":"ONEWEB-0027","alt_names":[],"object_type":"PAYLOAD","status":"ACTIVE","operator":null,"country":"UK","launch_date":"2020-03-21","launch_site_code":"TYMSC","launch_vehicle":null,"mission":null,"orbit_class":"UNKNOWN","rcs_meters":null,"size_class":null,"mass_kg":null,"dimensions":null,"purposes":["comms"],"wikipedia_slug":null,"has_3d_model":false,"image_url":null,"decayed_at":null,"tle_current":{"epoch":"2026-05-25T01:51:47.232864Z","epoch_age_seconds":78818,"freshness":"FRESH","line1":"1 45432U 20020J   26145.07763001  .00000059  00000+0  12130-3 0  9997","line2":"2 45432  87.9161  10.4483 0001550  93.0994 267.0314 13.16052239303312","mean_motion":13.16052239,"eccentricity":0.000155,"inclination_deg":87.9161,"raan_deg":10.4483,"arg_perigee_deg":93.0994,"mean_anomaly_deg":267.0314,"bstar":0.0001213,"rev_number":30331,"period_min":109.4181490162,"perigee_km":1198.6620335339,"apogee_km":1201.011205356,"semimajor_km":7577.973619445,"source":"CELESTRAK","updated_at":"2026-05-25T13:38:22.342449Z"}}}